SHT2N EGLL-EGCC

Flight info

Callsign SHT2N
Flight time 0h 31m
Altitude 18000
Route DCT ULTIB T420 ELVOS ELVOS1M
Aircraft A320/M-SDE3FGIKRWXY/S

Departure

Time 2026-05-07 17:24
Airport London Heathrow Airport (EGLL)

Arrival

Time 2026-05-07 17:55
Airport Manchester Airport (EGCC)
Time Latitude Longitude Altitude Speed Heading
2026-05-07 17:00 51.47049 -0.48584 86 ft 0 kts 269°
2026-05-07 17:16 51.47049 -0.48583 86 ft 1 kts 269°
2026-05-07 17:16 51.47049 -0.48545 88 ft 4 kts 269°
2026-05-07 17:16 51.47049 -0.48508 91 ft 2 kts 269°
2026-05-07 17:17 51.47054 -0.48477 87 ft 4 kts 204°
2026-05-07 17:17 51.47078 -0.48471 90 ft 4 kts 179°
2026-05-07 17:17 51.47088 -0.48472 88 ft 0 kts 179°
2026-05-07 17:20 51.47039 -0.48472 88 ft 10 kts 178°
2026-05-07 17:21 51.46968 -0.48463 86 ft 10 kts 179°
2026-05-07 17:21 51.46898 -0.48462 86 ft 11 kts 180°
2026-05-07 17:21 51.46816 -0.48467 90 ft 13 kts 185°
2026-05-07 17:21 51.46728 -0.48462 86 ft 12 kts 178°
2026-05-07 17:22 51.46648 -0.48465 88 ft 11 kts 183°
2026-05-07 17:22 51.46613 -0.48467 86 ft 6 kts 181°
2026-05-07 17:22 51.46591 -0.48467 86 ft 1 kts 178°
2026-05-07 17:22 51.46565 -0.48464 86 ft 11 kts 175°
2026-05-07 17:23 51.46484 -0.48431 89 ft 13 kts 133°
2026-05-07 17:23 51.46485 -0.48365 88 ft 9 kts 85°
2026-05-07 17:23 51.46484 -0.47887 89 ft 78 kts 92°
2026-05-07 17:23 51.46485 -0.46693 91 ft 129 kts 91°
2026-05-07 17:24 51.46470 -0.45136 178 ft 160 kts 94°
2026-05-07 17:24 51.46460 -0.43275 570 ft 173 kts 92°
2026-05-07 17:24 51.46625 -0.41361 1214 ft 176 kts 66°
2026-05-07 17:24 51.47373 -0.39664 1604 ft 195 kts 52°
2026-05-07 17:25 51.48274 -0.37905 1891 ft 218 kts 51°
2026-05-07 17:25 51.49282 -0.35928 2219 ft 241 kts 51°
2026-05-07 17:25 51.50389 -0.33751 2779 ft 259 kts 51°
2026-05-07 17:25 51.51542 -0.31480 3702 ft 263 kts 51°
2026-05-07 17:26 51.52512 -0.28991 4660 ft 265 kts 69°
2026-05-07 17:26 51.53147 -0.26227 5528 ft 269 kts 66°
2026-05-07 17:26 51.54250 -0.23814 5884 ft 270 kts 40°
2026-05-07 17:26 51.55936 -0.22456 5995 ft 270 kts 11°
2026-05-07 17:27 51.57775 -0.22548 6007 ft 271 kts 346°
2026-05-07 17:27 51.59617 -0.23251 6035 ft 272 kts 348°
2026-05-07 17:27 51.61409 -0.23895 6035 ft 272 kts 342°
2026-05-07 17:27 51.63121 -0.25168 6038 ft 272 kts 330°
2026-05-07 17:28 51.64757 -0.26697 6036 ft 272 kts 329°
2026-05-07 17:28 51.66388 -0.28246 6037 ft 272 kts 329°
2026-05-07 17:28 51.67486 -0.29301 6039 ft 273 kts 329°
2026-05-07 17:28 51.69660 -0.31403 6977 ft 276 kts 328°
2026-05-07 17:29 51.71316 -0.33000 7823 ft 279 kts 328°
2026-05-07 17:29 51.72996 -0.34616 8647 ft 283 kts 328°
2026-05-07 17:29 51.74144 -0.35721 9193 ft 286 kts 328°
2026-05-07 17:29 51.76428 -0.37935 10194 ft 294 kts 327°
2026-05-07 17:30 51.77647 -0.39123 10332 ft 310 kts 327°
2026-05-07 17:30 51.79564 -0.40987 10518 ft 333 kts 327°
2026-05-07 17:30 51.81587 -0.42952 10941 ft 345 kts 328°
2026-05-07 17:30 51.83635 -0.44933 11573 ft 350 kts 328°
2026-05-07 17:31 51.85760 -0.46993 12246 ft 354 kts 327°
2026-05-07 17:31 51.87880 -0.49053 12909 ft 358 kts 327°
2026-05-07 17:31 51.90031 -0.51146 13568 ft 362 kts 327°
2026-05-07 17:31 51.92204 -0.53261 13953 ft 366 kts 327°
2026-05-07 17:32 51.94391 -0.55393 14037 ft 366 kts 327°
2026-05-07 17:32 51.96579 -0.57528 14054 ft 366 kts 327°
2026-05-07 17:32 51.98757 -0.59651 14048 ft 366 kts 327°
2026-05-07 17:32 52.00917 -0.61763 14048 ft 366 kts 327°
2026-05-07 17:33 52.03126 -0.63930 14044 ft 366 kts 327°
2026-05-07 17:33 52.05307 -0.66070 14058 ft 366 kts 327°
2026-05-07 17:33 52.07488 -0.68209 14056 ft 366 kts 327°
2026-05-07 17:33 52.09639 -0.70320 14056 ft 366 kts 327°
2026-05-07 17:34 52.11817 -0.72456 14059 ft 366 kts 327°
2026-05-07 17:34 52.13998 -0.74601 14055 ft 366 kts 327°
2026-05-07 17:34 52.16172 -0.76745 14053 ft 366 kts 327°
2026-05-07 17:34 52.18341 -0.78892 14049 ft 366 kts 327°
2026-05-07 17:35 52.20506 -0.81037 14046 ft 366 kts 327°
2026-05-07 17:35 52.22678 -0.83188 14043 ft 365 kts 327°
2026-05-07 17:35 52.24852 -0.85347 14076 ft 368 kts 327°
2026-05-07 17:35 52.27039 -0.87520 14710 ft 369 kts 327°
2026-05-07 17:36 52.29232 -0.89701 15368 ft 371 kts 327°
2026-05-07 17:36 52.31445 -0.91900 15985 ft 373 kts 327°
2026-05-07 17:36 52.33671 -0.94113 16598 ft 376 kts 327°
2026-05-07 17:36 52.35911 -0.96347 17214 ft 378 kts 327°
2026-05-07 17:37 52.38168 -0.98601 17809 ft 381 kts 327°
2026-05-07 17:37 52.40436 -1.00864 18009 ft 383 kts 327°
2026-05-07 17:37 52.42748 -1.03177 18030 ft 395 kts 327°
2026-05-07 17:37 52.45108 -1.05545 18028 ft 398 kts 327°
2026-05-07 17:38 52.47468 -1.07915 18032 ft 399 kts 327°
2026-05-07 17:38 52.49841 -1.10297 18030 ft 399 kts 327°
2026-05-07 17:38 52.52211 -1.12677 18032 ft 399 kts 327°
2026-05-07 17:38 52.54577 -1.15056 18029 ft 399 kts 327°
2026-05-07 17:39 52.56953 -1.17445 18033 ft 400 kts 327°
2026-05-07 17:39 52.59317 -1.19826 18028 ft 399 kts 327°
2026-05-07 17:39 52.61694 -1.22227 18031 ft 400 kts 327°
2026-05-07 17:39 52.64062 -1.24623 18031 ft 400 kts 326°
2026-05-07 17:40 52.66421 -1.27014 18029 ft 400 kts 326°
2026-05-07 17:40 52.68794 -1.29423 18029 ft 400 kts 326°
2026-05-07 17:40 52.71161 -1.31826 18033 ft 400 kts 326°
2026-05-07 17:40 52.73519 -1.34224 18035 ft 400 kts 326°
2026-05-07 17:41 52.75899 -1.36649 18042 ft 400 kts 326°
2026-05-07 17:41 52.78268 -1.39073 18040 ft 400 kts 326°
2026-05-07 17:41 52.80639 -1.41500 18039 ft 401 kts 326°
2026-05-07 17:41 52.82991 -1.43908 17938 ft 392 kts 326°
2026-05-07 17:42 52.85297 -1.46266 17392 ft 388 kts 326°
2026-05-07 17:42 52.87565 -1.48590 16512 ft 380 kts 326°
2026-05-07 17:42 52.89766 -1.50848 16013 ft 363 kts 326°
2026-05-07 17:42 52.91871 -1.53011 15541 ft 354 kts 326°
2026-05-07 17:43 52.93958 -1.55162 15048 ft 353 kts 326°
2026-05-07 17:43 52.96039 -1.57311 14565 ft 352 kts 326°
2026-05-07 17:43 52.98116 -1.59460 14079 ft 352 kts 326°
2026-05-07 17:43 53.00184 -1.61603 13569 ft 351 kts 326°
2026-05-07 17:44 53.02250 -1.63740 13066 ft 350 kts 326°
2026-05-07 17:44 53.04309 -1.65890 12577 ft 347 kts 323°
2026-05-07 17:44 53.06109 -1.68407 12223 ft 337 kts 310°
2026-05-07 17:44 53.07618 -1.71285 12089 ft 324 kts 307°
2026-05-07 17:45 53.09064 -1.74078 11960 ft 313 kts 307°
2026-05-07 17:45 53.10462 -1.76779 11812 ft 304 kts 307°
2026-05-07 17:45 53.11831 -1.79429 11517 ft 300 kts 307°
2026-05-07 17:45 53.13191 -1.82068 11203 ft 298 kts 307°
2026-05-07 17:46 53.14523 -1.84655 10721 ft 293 kts 307°
2026-05-07 17:46 53.15844 -1.87229 10126 ft 290 kts 307°
2026-05-07 17:46 53.17146 -1.89768 9544 ft 286 kts 307°
2026-05-07 17:46 53.18423 -1.92261 9015 ft 281 kts 307°
2026-05-07 17:47 53.19691 -1.94739 8530 ft 279 kts 307°
2026-05-07 17:47 53.20941 -1.97181 8084 ft 274 kts 307°
2026-05-07 17:47 53.22154 -1.99514 7890 ft 258 kts 312°
2026-05-07 17:47 53.23559 -2.01323 8023 ft 261 kts 328°
2026-05-07 17:48 53.25272 -2.02420 7837 ft 270 kts 345°
2026-05-07 17:48 53.27187 -2.02549 7421 ft 277 kts
2026-05-07 17:48 53.29080 -2.02271 7154 ft 270 kts
2026-05-07 17:48 53.30947 -2.02028 6641 ft 268 kts
2026-05-07 17:49 53.32800 -2.01803 6122 ft 267 kts
2026-05-07 17:49 53.34646 -2.01584 5568 ft 265 kts
2026-05-07 17:49 53.36476 -2.01365 5007 ft 263 kts
2026-05-07 17:49 53.38299 -2.01145 4574 ft 262 kts
2026-05-07 17:50 53.40094 -2.00928 4330 ft 257 kts
2026-05-07 17:50 53.41868 -2.00712 3936 ft 253 kts
2026-05-07 17:50 53.43560 -2.00936 3661 ft 235 kts 337°
2026-05-07 17:50 53.44804 -2.02460 3363 ft 214 kts 301°
2026-05-07 17:51 53.45317 -2.04613 3285 ft 184 kts 271°
2026-05-07 17:51 53.45215 -2.06552 3140 ft 158 kts 247°
2026-05-07 17:51 53.44715 -2.08072 2976 ft 144 kts 227°
2026-05-07 17:51 53.44086 -2.09381 2799 ft 141 kts 226°
2026-05-07 17:52 53.43473 -2.10659 2623 ft 140 kts 227°
2026-05-07 17:52 53.42872 -2.11913 2440 ft 140 kts 227°
2026-05-07 17:52 53.42263 -2.13182 2254 ft 140 kts 227°
2026-05-07 17:52 53.41658 -2.14443 2062 ft 139 kts 226°
2026-05-07 17:53 53.41051 -2.15705 1878 ft 139 kts 227°
2026-05-07 17:53 53.40440 -2.16978 1683 ft 138 kts 227°
2026-05-07 17:53 53.39844 -2.18217 1494 ft 139 kts 227°
2026-05-07 17:53 53.39241 -2.19470 1313 ft 138 kts 227°
2026-05-07 17:54 53.38637 -2.20724 1111 ft 138 kts 227°
2026-05-07 17:54 53.38032 -2.21979 902 ft 140 kts 229°
2026-05-07 17:54 53.37415 -2.23261 699 ft 142 kts 229°
2026-05-07 17:54 53.36796 -2.24555 490 ft 141 kts 230°
2026-05-07 17:55 53.36183 -2.25822 303 ft 140 kts 229°
2026-05-07 17:55 53.35603 -2.27002 264 ft 105 kts 228°
2026-05-07 17:55 53.35330 -2.27556 257 ft 18 kts 241°
2026-05-07 17:55 53.35306 -2.27676 254 ft 18 kts 249°
2026-05-07 17:56 53.35259 -2.27894 246 ft 20 kts 257°
2026-05-07 17:56 53.35239 -2.28083 238 ft 12 kts 261°
2026-05-07 17:56 53.35233 -2.28141 238 ft 0 kts 261°
2026-05-07 17:56 53.35239 -2.28183 238 ft 7 kts 310°
2026-05-07 17:57 53.35299 -2.28180 237 ft 10 kts 11°
2026-05-07 17:57 53.35349 -2.28165 238 ft 12 kts
2026-05-07 17:57 53.35477 -2.28135 239 ft 15 kts 23°
2026-05-07 17:57 53.35557 -2.28041 240 ft 13 kts 49°
2026-05-07 17:58 53.35599 -2.27951 244 ft 8 kts 53°
2026-05-07 17:58 53.35640 -2.27893 247 ft 13 kts 24°
2026-05-07 17:58 53.35727 -2.27880 247 ft 11 kts
2026-05-07 17:58 53.35811 -2.27866 247 ft 13 kts
2026-05-07 17:59 53.35906 -2.27846 247 ft 14 kts
2026-05-07 17:59 53.36001 -2.27891 247 ft 16 kts 319°
2026-05-07 17:59 53.36080 -2.28025 247 ft 17 kts 314°
2026-05-07 17:59 53.36162 -2.28162 247 ft 18 kts 315°
2026-05-07 18:00 53.36243 -2.28294 247 ft 15 kts 316°
2026-05-07 18:00 53.36307 -2.28413 247 ft 10 kts 313°
2026-05-07 18:00 53.36365 -2.28473 247 ft 4 kts 343°
2026-05-07 18:00 53.36376 -2.28477 247 ft 6 kts 349°
2026-05-07 18:01 53.36425 -2.28507 247 ft 9 kts 327°
2026-05-07 18:01 53.36483 -2.28596 247 ft 12 kts 314°
2026-05-07 18:01 53.36545 -2.28702 247 ft 12 kts 314°
2026-05-07 18:01 53.36595 -2.28822 247 ft 10 kts 302°
2026-05-07 18:02 53.36719 -2.28994 247 ft 12 kts 311°
2026-05-07 18:02 53.36799 -2.29021 247 ft 14 kts 16°
2026-05-07 18:02 53.36880 -2.28918 247 ft 16 kts 44°
2026-05-07 18:03 53.36931 -2.28828 247 ft 5 kts 46°
2026-05-07 18:03 53.36943 -2.28773 247 ft 4 kts 114°
2026-05-07 18:03 53.36932 -2.28760 247 ft 2 kts 146°
2026-05-07 18:03 53.36926 -2.28752 247 ft 1 kts 143°
2026-05-07 18:04 53.36923 -2.28746 247 ft 0 kts 134°
2026-05-07 18:04 53.36920 -2.28742 247 ft 0 kts 137°